Phuket, Thailand

3:24 AM +07 on June 23, 2018 (GMT +0700)
Phuket International

Weather History for VTSP - March, 2018

Change the Weather History Date:

Wednesday, March 14, 2018

  Actual Average Record
Temperature  
Mean Temperature 82 °F -  
Max Temperature 93 °F 92 °F 98 °F (2002)
Min Temperature 72 °F 76 °F 70 °F (2014)
Cooling Degree Days 18    
Growing Degree Days 32 (Base 50)    
Moisture  
Dew Point 71 °F    
Average Humidity 68    
Maximum Humidity 94    
Minimum Humidity 33    
Precipitation  
Precipitation 0.03 in 0.14 in - ()
Sea Level Pressure  
Sea Level Pressure 29.84 in    
Wind  
Wind Speed 4 mph ()    
Max Wind Speed 13 mph    
Max Gust Speed 22 mph    
Visibility 5.2 miles    
Events Rain    
Averages and records for this station are not official NWS values.
T = Trace of Precipitation, MM = Missing Value Source: Averaged Metar Reports

Daily Weather History Graph

Daily Weather History Graph

Search for Another Location

Airport or City:

Astronomy

Mar. 14, 2018 Rise Set
Actual Time 6:34 AM +07 6:37 PM +07
Civil Twilight 6:13 AM +07 6:58 PM +07
Nautical Twilight 5:49 AM +07 7:23 PM +07
Astronomical Twilight 5:24 AM +07 7:47 PM +07
Moon 4:05 AM +07 (3/14) 4:08 PM +07 (3/14)
Length of Visible Light 12h 45m
Length of Day
12h 03m
Waning Crescent, 11% of the Moon is Illuminated
Mar 14
Waning Crescent
Mar 17
New
Mar 24
First Quarter
Mar 31
Full
Apr 8
Last Quarter

Hourly Weather History & Observations

Time (+07) Temp. Heat Index Dew Point Humidity Pressure Visibility Wind Dir Wind Speed Gust Speed Precip Events Conditions
12:00 AM 80.6 °F 85.4 °F 73.4 °F 79% 29.92 in 5.0 mi Variable 1.2 mph - N/A   Partly Cloudy
12:30 AM 80.6 °F 85.4 °F 73.4 °F 79% 29.86 in 5.0 mi Calm Calm - N/A   Partly Cloudy
1:00 AM 79 °F - 75 °F 83% 29.83 in 4 mi NE 4.6 mph - - Rain Light Rain
1:00 AM 77.0 °F - 71.6 °F 83% 29.86 in 3.1 mi East 8.1 mph - N/A Rain Rain
1:30 AM 75.2 °F - 71.6 °F 89% 29.83 in 4.3 mi Variable 2.3 mph - N/A   Mostly Cloudy
2:00 AM 75.2 °F - 71.6 °F 89% 29.83 in 4.3 mi Variable 2.3 mph - N/A   Mostly Cloudy
2:30 AM 75.2 °F - 73.4 °F 94% 29.80 in 4.3 mi Variable 2.3 mph - N/A   Partly Cloudy
3:30 AM 75.2 °F - 73.4 °F 94% 29.80 in 4.3 mi ESE 9.2 mph - N/A   Partly Cloudy
4:00 AM 79 °F - 74 °F 79% 29.82 in 5 mi Calm Calm - -   Mist
4:00 AM 75.2 °F - 71.6 °F 89% 29.80 in 4.3 mi Variable 1.2 mph - N/A   Partly Cloudy
4:30 AM 75.2 °F - 71.6 °F 89% 29.80 in 4.3 mi Calm Calm - N/A   Partly Cloudy
5:00 AM 75.2 °F - 71.6 °F 89% 29.80 in 4.3 mi Calm Calm - N/A   Partly Cloudy
5:30 AM 75.2 °F - 69.8 °F 83% 29.80 in 4.3 mi North 1.2 mph - N/A   Partly Cloudy
6:00 AM 75.2 °F - 69.8 °F 83% 29.83 in 4.3 mi Calm Calm - N/A   Partly Cloudy
6:30 AM 75.2 °F - 69.8 °F 83% 29.83 in 4.3 mi Calm Calm - N/A   Partly Cloudy
7:00 AM 80 °F - 70 °F 65% 29.86 in 6 mi Calm Calm - -   Mist
7:00 AM 75.2 °F - 71.6 °F 89% 29.86 in 4.3 mi Calm Calm - N/A   Partly Cloudy
7:30 AM 77.0 °F - 73.4 °F 89% 29.86 in 4.3 mi East 4.6 mph - N/A   Partly Cloudy
8:00 AM 80.6 °F 85.4 °F 73.4 °F 79% 29.86 in 4.3 mi ESE 3.5 mph - N/A   Partly Cloudy
8:30 AM 84.2 °F 89.6 °F 71.6 °F 66% 29.89 in 4.3 mi East 8.1 mph - N/A   Partly Cloudy
9:00 AM 84.2 °F 89.6 °F 71.6 °F 66% 29.89 in 5.6 mi East 9.2 mph - N/A   Unknown
9:30 AM 84.2 °F 89.6 °F 71.6 °F 66% 29.89 in 5.6 mi East 10.4 mph - N/A   Partly Cloudy
10:00 AM 88 °F - 72 °F 50% 29.87 in 6 mi ENE 6.9 mph - -   Scattered Clouds
10:00 AM 86.0 °F 91.8 °F 71.6 °F 62% 29.89 in 5.6 mi East 9.2 mph 21.9 mph N/A   Partly Cloudy
10:30 AM 86.0 °F 91.8 °F 71.6 °F 62% 29.89 in 5.6 mi East 10.4 mph - N/A   Partly Cloudy
11:00 AM 86.0 °F 91.8 °F 71.6 °F 62% 29.89 in 5.6 mi East 8.1 mph - N/A   Partly Cloudy
11:30 AM 87.8 °F 91.4 °F 68.0 °F 52% 29.86 in 6.2 mi ENE 8.1 mph - N/A   Partly Cloudy
12:00 PM 89.6 °F 93.4 °F 68.0 °F 49% 29.86 in 6.2 mi East 6.9 mph - N/A   Partly Cloudy
12:30 PM 89.6 °F 91.1 °F 64.4 °F 43% 29.83 in 6.2 mi East 8.1 mph - N/A   Partly Cloudy
1:00 PM 92 °F - 66 °F 33% 29.82 in 6 mi NE 3.5 mph - -   Scattered Clouds
1:00 PM 91.4 °F 93.2 °F 64.4 °F 41% 29.83 in 6.2 mi East 6.9 mph - N/A   Partly Cloudy
1:30 PM 91.4 °F 92.1 °F 62.6 °F 38% 29.80 in 6.2 mi North 6.9 mph - N/A   Partly Cloudy
2:00 PM 91.4 °F 92.1 °F 62.6 °F 38% 29.80 in 5.0 mi Variable 4.6 mph - N/A   Partly Cloudy
2:30 PM 91.4 °F 98.4 °F 71.6 °F 52% 29.77 in 6.2 mi WNW 4.6 mph - N/A   Partly Cloudy
3:00 PM 91.4 °F 98.4 °F 71.6 °F 52% 29.80 in 6.2 mi West 10.4 mph - N/A   Partly Cloudy
3:30 PM 89.6 °F 94.7 °F 69.8 °F 52% 29.80 in 6.2 mi West 11.5 mph - N/A   Partly Cloudy
4:00 PM 90 °F - 71 °F 44% 29.75 in 6 mi Calm Calm - -   Scattered Clouds
4:00 PM 89.6 °F 96.2 °F 71.6 °F 55% 29.80 in 6.2 mi West 12.7 mph - N/A   Partly Cloudy
4:30 PM 87.8 °F 93.8 °F 71.6 °F 58% 29.80 in 6.2 mi West 11.5 mph - N/A   Partly Cloudy
5:00 PM 87.8 °F 93.8 °F 71.6 °F 58% 29.80 in 6.2 mi West 11.5 mph - N/A   Partly Cloudy
5:30 PM 87.8 °F 92.6 °F 69.8 °F 55% 29.80 in 6.2 mi West 11.5 mph - N/A   Partly Cloudy
6:00 PM 86.0 °F 90.4 °F 69.8 °F 58% 29.80 in - West 9.2 mph - N/A   Clear
6:30 PM 84.2 °F 89.6 °F 71.6 °F 66% 29.80 in 6.2 mi West 8.1 mph - N/A   Partly Cloudy
7:00 PM 87 °F - 74 °F 57% 29.76 in 6 mi Calm Calm - -   Scattered Clouds
7:00 PM 84.2 °F 88.4 °F 69.8 °F 62% 29.80 in 5.0 mi West 6.9 mph - N/A   Partly Cloudy
7:30 PM 84.2 °F 88.4 °F 69.8 °F 62% 29.83 in 5.0 mi WNW 5.8 mph - N/A   Partly Cloudy
8:00 PM 84.2 °F 88.4 °F 69.8 °F 62% 29.83 in 5.0 mi WNW 9.2 mph - N/A   Partly Cloudy
8:30 PM 84.2 °F 88.4 °F 69.8 °F 62% 29.83 in 5.0 mi WNW 4.6 mph - N/A   Partly Cloudy
9:00 PM 82.4 °F 87.2 °F 71.6 °F 70% 29.86 in 5.0 mi WNW 3.5 mph - N/A   Partly Cloudy
9:30 PM 82.4 °F 87.2 °F 71.6 °F 70% 29.86 in 5.0 mi North 3.5 mph - N/A   Partly Cloudy
10:00 PM 83 °F - 74 °F 66% 29.82 in 6 mi Calm Calm - -   Scattered Clouds
10:00 PM 84.2 °F 89.6 °F 71.6 °F 66% 29.89 in 5.0 mi Variable 3.5 mph - N/A   Partly Cloudy
10:30 PM 78.8 °F - 73.4 °F 83% 29.89 in 5.0 mi Calm Calm - N/A   Partly Cloudy
11:00 PM 78.8 °F - 73.4 °F 83% 29.89 in 5.0 mi Calm Calm - N/A   Partly Cloudy
11:30 PM 77.0 °F - 73.4 °F 89% 29.89 in 5.0 mi Variable 1.2 mph - N/A   Partly Cloudy